Radiation Dose measured at exhaust stack monitor of Miscellaneous Solid Waste Incinerator Building/Incinerator raregas monitor
Date,Time,Incinerator Gas Monitor(cps),Wind Direction,Wind Velocity(m/s)
2022/02/08,00:00,1.5,northwest,3.4
2022/02/08,00:10,1.6,northwest,2.6
2022/02/08,00:20,1.6,northwest,3.2
2022/02/08,00:30,1.5,northwest,4.3
2022/02/08,00:40,1.6,northwest,4.0
2022/02/08,00:50,1.5,northwest,5.1
2022/02/08,01:00,1.5,west-northwest,5.0
2022/02/08,01:10,1.4,west-northwest,4.5
2022/02/08,01:20,1.4,west-northwest,4.4
2022/02/08,01:30,1.5,west,4.8
2022/02/08,01:40,1.5,west-northwest,4.6
2022/02/08,01:50,1.6,northwest,4.5
2022/02/08,02:00,1.4,northwest,4.5
2022/02/08,02:10,1.4,west-northwest,4.1
2022/02/08,02:20,1.5,northwest,3.9
2022/02/08,02:30,1.5,northwest,3.8
2022/02/08,02:40,1.5,west-northwest,4.2
2022/02/08,02:50,1.4,west-northwest,4.5
2022/02/08,03:00,1.5,northwest,4.8
2022/02/08,03:10,1.5,northwest,4.5
2022/02/08,03:20,1.4,northwest,5.0
2022/02/08,03:30,1.5,northwest,4.8
2022/02/08,03:40,1.5,northwest,5.3
2022/02/08,03:50,1.4,northwest,6.1
2022/02/08,04:00,1.6,west-northwest,6.0
2022/02/08,04:10,1.5,west-northwest,5.4
2022/02/08,04:20,1.4,west-northwest,5.3
2022/02/08,04:30,1.5,west-northwest,5.6
2022/02/08,04:40,1.6,west-northwest,6.0
2022/02/08,04:50,1.4,west-northwest,5.7
2022/02/08,05:00,1.6,west-northwest,6.2
2022/02/08,05:10,1.5,west-northwest,6.8
2022/02/08,05:20,1.5,northwest,6.5
2022/02/08,05:30,1.6,northwest,5.7
2022/02/08,05:40,1.5,northwest,4.9
2022/02/08,05:50,1.5,northwest,4.4
2022/02/08,06:00,1.4,north-northwest,3.9
2022/02/08,06:10,1.6,north-northwest,4.1
2022/02/08,06:20,1.5,north-northwest,5.0
2022/02/08,06:30,1.5,northwest,5.6
2022/02/08,06:40,1.5,north-northwest,6.3
2022/02/08,06:50,1.4,north-northwest,6.5
2022/02/08,07:00,1.5,north-northwest,5.1
2022/02/08,07:10,1.5,north-northwest,4.4
2022/02/08,07:20,1.5,north-northwest,5.0
2022/02/08,07:30,1.5,north-northwest,4.4
2022/02/08,07:40,1.6,northwest,3.5
2022/02/08,07:50,1.5,northwest,3.3
2022/02/08,08:00,1.5,northwest,3.1
2022/02/08,08:10,1.5,west-northwest,2.6
2022/02/08,08:20,1.5,northwest,3.7
2022/02/08,08:30,1.5,northwest,3.8
2022/02/08,08:40,1.4,northwest,3.1
2022/02/08,08:50,1.5,northwest,2.5
2022/02/08,09:00,1.6,northwest,1.7
2022/02/08,09:10,1.5,north-northwest,1.1
2022/02/08,09:20,1.5,north-northwest,1.7
2022/02/08,09:30,1.5,north-northwest,2.6
2022/02/08,09:40,1.5,west-northwest,1.9
2022/02/08,09:50,1.5,north-northwest,1.4
2022/02/08,10:00,1.5,northwest,2.3
2022/02/08,10:10,1.5,west-northwest,0.8
2022/02/08,10:20,1.5,north,1.2
2022/02/08,10:30,1.6,north,1.2
2022/02/08,10:40,1.4,east,1.4
2022/02/08,10:50,1.4,east,1.2
2022/02/08,11:00,1.4,east-southeast,2.0
2022/02/08,11:10,1.5,east-northeast,1.9
2022/02/08,11:20,1.5,east,1.9
2022/02/08,11:30,1.4,east-northeast,2.0
2022/02/08,11:40,1.5,east-southeast,2.3
2022/02/08,11:50,1.5,east-southeast,2.5
2022/02/08,12:00,1.5,east-southeast,3.0
2022/02/08,12:10,1.6,east-southeast,3.3
2022/02/08,12:20,1.5,east,3.0
2022/02/08,12:30,1.7,east,3.4
2022/02/08,12:40,1.5,east,3.2
2022/02/08,12:50,1.5,east-northeast,3.3
2022/02/08,13:00,1.4,east-southeast,3.8
2022/02/08,13:10,1.5,east,3.9
2022/02/08,13:20,1.6,east-southeast,4.5
2022/02/08,13:30,1.5,east,4.0
2022/02/08,13:40,1.6,east-southeast,3.9
2022/02/08,13:50,1.5,east,3.3
2022/02/08,14:00,1.5,east,3.3
2022/02/08,14:10,1.5,east-southeast,3.9
2022/02/08,14:20,1.5,east-southeast,3.8
2022/02/08,14:30,1.4,east-southeast,3.5
2022/02/08,14:40,1.5,east-southeast,4.2
2022/02/08,14:50,1.5,southeast,3.2
2022/02/08,15:00,1.5,south-southeast,3.7
2022/02/08,15:10,1.5,south-southeast,3.0
2022/02/08,15:20,1.5,south-southeast,3.8
2022/02/08,15:30,1.6,east-southeast,3.8
2022/02/08,15:40,1.5,east,3.7
2022/02/08,15:50,1.4,east-northeast,3.5
2022/02/08,16:00,1.5,northeast,1.5
2022/02/08,16:10,1.5,north,1.5
2022/02/08,16:20,1.5,northeast,1.1
2022/02/08,16:30,1.5,east,1.7
2022/02/08,16:40,1.5,southeast,1.2
2022/02/08,16:50,1.5,west-northwest,3.1
2022/02/08,17:00,1.5,west,5.1
2022/02/08,17:10,1.5,west,4.3
2022/02/08,17:20,1.5,west,4.7
2022/02/08,17:30,1.6,west,4.5
2022/02/08,17:40,1.6,west,5.2
2022/02/08,17:50,1.6,west,5.6
2022/02/08,18:00,1.6,west,5.7
2022/02/08,18:10,1.5,west,7.0
2022/02/08,18:20,1.5,west,6.1
2022/02/08,18:30,1.6,west,7.5
2022/02/08,18:40,1.5,west,7.7
2022/02/08,18:50,1.5,west,6.6
2022/02/08,19:00,1.4,west,6.5
2022/02/08,19:10,1.4,west,6.4
2022/02/08,19:20,1.5,west-northwest,4.2
2022/02/08,19:30,1.5,west-northwest,4.2
2022/02/08,19:40,1.5,west-northwest,5.9
2022/02/08,19:50,1.4,west-northwest,6.7
2022/02/08,20:00,1.5,west-northwest,7.2
2022/02/08,20:10,1.4,west-northwest,5.7
2022/02/08,20:20,1.5,northwest,4.5
2022/02/08,20:30,1.7,northwest,4.1
2022/02/08,20:40,1.6,northwest,5.4
2022/02/08,20:50,1.4,northwest,5.1
2022/02/08,21:00,1.5,northwest,3.4
2022/02/08,21:10,1.5,west-northwest,3.1
2022/02/08,21:20,1.5,west,2.0
2022/02/08,21:30,1.5,west,2.6
2022/02/08,21:40,1.6,west,1.9
2022/02/08,21:50,1.5,southwest,1.4
2022/02/08,22:00,1.5,west-southwest,1.9
2022/02/08,22:10,1.4,west-southwest,1.5
2022/02/08,22:20,1.5,west-southwest,2.0
2022/02/08,22:30,1.5,west-southwest,2.3
2022/02/08,22:40,1.5,west,2.3
2022/02/08,22:50,1.6,west,2.5
2022/02/08,23:00,1.6,west,2.6
2022/02/08,23:10,1.5,west,3.6
2022/02/08,23:20,1.6,west,5.8
2022/02/08,23:30,1.6,west,6.8
2022/02/08,23:40,1.6,west,7.2
2022/02/08,23:50,1.5,west,6.2
